Rolla, MO

7:16 AM CST on November 19, 2017 (GMT -0600)
Rolla National

Weather History for KVIH - August, 2014

Change the Weather History Date:

Wednesday, August 20, 2014

  Actual Average Record
Temperature  
Mean Temperature 81 °F 76 °F  
Max Temperature 92 °F 87 °F 102 °F (1962)
Min Temperature 70 °F 65 °F 50 °F (1950)
Degree Days  
Heating Degree Days 0 0  
Month to date heating degree days 0 0  
Since 1 June heating degree days 4 15  
Since 1 July heating degree days 3 1  
Cooling Degree Days 16 11  
Month to date cooling degree days 204 244  
Year to date cooling degree days 850 968  
Since 1 June cooling degree days 703 861  
Growing Degree Days 31 (Base 50)    
Moisture  
Dew Point 68 °F    
Average Humidity 69    
Maximum Humidity 93    
Minimum Humidity 44    
Precipitation  
Precipitation 0.19 in 0.12 in 1.99 in (2007)
Month to date precipitation 3.07 2.34  
Year to date precipitation 16.11 28.22  
Sea Level Pressure  
Sea Level Pressure 29.90 in    
Wind  
Wind Speed 7 mph (SSW)    
Max Wind Speed 40 mph    
Max Gust Speed 56 mph    
Visibility 9 miles    
Events Rain , Thunderstorm    
T = Trace of Precipitation, MM = Missing Value Source: NWS Daily Summary

Daily Weather History Graph

Daily Weather History Graph

Search for Another Location

Airport or City:

Trip Planner

Search our weather history database for the weather conditions in past years. The results will help you decide how hot, cold, wet, or windy it might be!

Date:

Astronomy

Aug. 20, 2014 Rise Set
Actual Time 6:26 AM CDT 7:53 PM CDT
Civil Twilight 5:58 AM CDT 8:21 PM CDT
Nautical Twilight 5:25 AM CDT 8:54 PM CDT
Astronomical Twilight 4:50 AM CDT 9:29 PM CDT
Moon 2:08 AM CDT (8/20) 4:37 PM CDT (8/20)
Length of Visible Light 14h 22m
Length of Day
13h 27m
Waning Crescent, 20% of the Moon is Illuminated
Aug 20
Waning Crescent
Aug 25
New
Sep 2
First Quarter
Sep 8
Full
Sep 15
Last Quarter

Hourly Weather History & Observations

Time (CDT) Temp. Heat Index Dew Point Humidity Pressure Visibility Wind Dir Wind Speed Gust Speed Precip Events Conditions
12:53 AM 73.9 °F - 66.9 °F 79% 29.83 in 10.0 mi SW 5.8 mph - N/A   Partly Cloudy
1:53 AM 72.0 °F - 66.9 °F 84% 29.82 in 10.0 mi SW 4.6 mph - N/A   Clear
2:53 AM 73.0 °F - 69.1 °F 87% 29.84 in 10.0 mi SW 8.1 mph - N/A   Clear
3:53 AM 71.1 °F - 68.0 °F 90% 29.86 in 10.0 mi SSW 6.9 mph - N/A   Clear
4:53 AM 72.0 °F - 66.9 °F 84% 29.85 in 10.0 mi SSW 8.1 mph - N/A   Clear
5:53 AM 71.1 °F - 66.9 °F 87% 29.86 in 10.0 mi SW 8.1 mph - N/A   Clear
6:53 AM 73.0 °F - 66.9 °F 81% 29.87 in 10.0 mi SW 5.8 mph - N/A   Clear
7:53 AM 73.9 °F - 69.1 °F 85% 29.88 in 10.0 mi SSW 6.9 mph - N/A   Clear
8:53 AM 77.0 °F - 70.0 °F 79% 29.91 in 10.0 mi SW 8.1 mph - N/A   Clear
9:53 AM 80.1 °F 83.2 °F 70.0 °F 71% 29.92 in 10.0 mi SW 8.1 mph - N/A   Clear
10:53 AM 82.9 °F 88.0 °F 72.0 °F 69% 29.93 in 10.0 mi SSW 6.9 mph - N/A   Clear
11:53 AM 87.1 °F 91.3 °F 69.1 °F 55% 29.95 in 10.0 mi WSW 10.4 mph - N/A   Clear
12:53 PM 89.1 °F 94.1 °F 70.0 °F 53% 29.94 in 10.0 mi SSW 4.6 mph - N/A   Scattered Clouds
1:53 PM 88.0 °F 92.1 °F 69.1 °F 53% 29.94 in 10.0 mi Variable 5.8 mph - N/A   Mostly Cloudy
2:53 PM 91.0 °F 95.6 °F 69.1 °F 48% 29.92 in 10.0 mi Variable 4.6 mph - N/A   Partly Cloudy
3:53 PM 90.0 °F 94.5 °F 69.1 °F 50% 29.89 in 10.0 mi SSW 5.8 mph - N/A   Partly Cloudy
4:53 PM 91.9 °F 95.4 °F 66.9 °F 44% 29.87 in 10.0 mi South 12.7 mph 19.6 mph N/A   Partly Cloudy
5:13 PM 89.1 °F 92.9 °F 68.0 °F 50% 29.91 in 10.0 mi South 11.5 mph - N/A Thunderstorm Mostly Cloudy
5:29 PM 80.1 °F 82.7 °F 68.0 °F 67% 29.94 in 1.0 mi WSW 39.1 mph 56.4 mph 0.11 in Rain , Thunderstorm Thunderstorms and Rain
5:33 PM 77.0 °F - 64.9 °F 66% 29.93 in 0.5 mi Variable 3.5 mph 56.4 mph 0.18 in Rain , Thunderstorm Heavy Thunderstorms and Rain
5:39 PM 78.1 °F - 64.9 °F 64% 29.92 in 1.2 mi Variable 3.5 mph 23.0 mph 0.18 in Rain , Thunderstorm Light Thunderstorms and Rain
5:42 PM 78.1 °F - 64.9 °F 64% 29.92 in 4.0 mi Calm Calm - 0.18 in Rain , Thunderstorm Light Thunderstorms and Rain
5:53 PM 75.0 °F - 69.1 °F 82% 29.89 in 10.0 mi NNW 8.1 mph - 0.19 in Rain , Thunderstorm Light Thunderstorms and Rain
6:03 PM 73.9 °F - 69.1 °F 85% 29.93 in 10.0 mi North 9.2 mph - 0.00 in Rain , Thunderstorm Light Rain
6:22 PM 73.9 °F - 70.0 °F 87% 29.92 in 10.0 mi WNW 3.5 mph - 0.00 in   Scattered Clouds
6:53 PM 75.0 °F - 69.1 °F 82% 29.90 in 10.0 mi Calm Calm - 0.00 in   Partly Cloudy
7:53 PM 73.9 °F - 71.1 °F 91% 29.88 in 10.0 mi South 3.5 mph - N/A   Clear
8:53 PM 73.9 °F - 70.0 °F 87% 29.91 in 10.0 mi ESE 5.8 mph - N/A   Clear
9:53 PM 73.9 °F - 68.0 °F 82% 29.93 in 10.0 mi ESE 12.7 mph - N/A   Clear
10:53 PM 73.9 °F - 68.0 °F 82% 29.93 in 10.0 mi SSE 6.9 mph - N/A   Clear
11:53 PM 75.0 °F - 64.9 °F 71% 29.94 in 10.0 mi South 9.2 mph - N/A   Clear